Location: Chacón
(10.5789°N, 66.9317°W)
Time: 22:31:35
(UTC+00:00)

Cosmos 962 Rocket - Pass Details

Date: 23 May 2024
Orbit: 950 x 999 km, 82.9° (Epoch: 25 June)

Event Time Altitude Azimuth Distance (km) Brightness Sun altitude
Exits shadow 07:53:43 68° 151° (SSE) 1,049 4.5 -29.8°
Maximum altitude 07:54:29 78° 93° (E) 1,003 4.5 -29.7°
Drops below altitude 10° 08:00:46 10° 7° (N) 2,746 7.3 -28.4°
Sets 08:03:18 0° 6° (N) 3,700 8.0 -27.8°
